www.pogodaiklimat.ru

Погода и климат >> Архив погоды >> Россия >> Нижегородская область >> Выкса


ПОГОДА в Выксе

  • Прогноз погоды в Выксе
  • Монитор погоды в Выксе

АРХИВ ПОГОДЫ в Выксе

Время (UTC), дата Ветер
(напр.,м/с)
 
Видим.   Явления Облачность Т
(С)
Тd
(С)
f
(%)
Тe
(С)
Тes
(С)
Комфортность P
(гПа)
Po
(гПа)
Тmin
(С)
Tmax
(С)
R
(мм)
R24
(мм)
S
(см)
18 14.05 З 2-3
{7}
10 км ясно +18.0 +14.4 79 +19 +19 1015.6 1002.3
21 14.05 З 2-3
{4}
10 км ясно +16.5 +14.6 89 +17 +17 1015.2 1001.8
00 15.05 З 2-3
{4}
10 км ясно +15.5 +13.9 90 +15 +15 1015.3 1001.9
03 15.05 СЗ 2-3
{4}
10 км 10/0
[As op]
+15.0 +13.5 91 +15 +15 1015.3 1001.8 +14.9
06 15.05 СЗ 2-3
{5}
10 км 10/10 300 м
[Sc]
+16.8 +15.6 93 +17 +17 1015.5 1002.1
09 15.05 С 2-3
{3}
10 км 6/6 1000 м
[Cu hum]
+21.8 +20.7 93 +28 +34 душно 1015.3 1002.2
12 15.05 З 3-5
{7}
10 км 6/6 600 м
[Cu med, cong]
+23.9 +14.3 55 +26 +30 жарко 1014.9 1001.8
15 15.05 ЮВ 2-5
{8}
10 км 9/9 600 м
[Sc]
+21.0 +12.7 59 +24 +24 комфорт 1014.9 1001.7 +23.9
18 15.05 ЮЗ 1-2
{3}
10 км {гроза, ливн. осадки} 9/9 600 м
[Cb cap]
+15.8 +14.6 93 +16 +16 1015.9 1002.4
21 15.05 З 2-3
{3}
10 км 10/0
[Ac As]
+15.9 +14.5 91 +16 +16 1015.8 1002.4
00 16.05 СЗ 2-3
{7}
10 км слаб. дождь 10/10 360 м
[Sc]
+15.1 +14.0 93 +15 +15 1016.1 1002.5
03 16.05 СЗ 3-4
{10}
4000 м сильн. дождь 10/10 300 м
[Sc]
+14.4 +13.5 94 +13 +13 1015.9 1002.4 +14.3 18
06 16.05 СЗ 4-6
{10}
10 км слаб. дождь 9/9 300 м
[Sc]
+14.5 +13.0 91 +13 +14 1016.7 1003.1
09 16.05 С 5-8
{9}
10 км {дождь} 8/6 600 м
[Cu hum Ac trans]
+17.5 +11.4 67 +17 +19 1017.9 1004.5
12 16.05 С 5-8
{9}
10 км {дождь} 8/8 600 м
[Cb cap]
+18.7 +9.3 54 +19 +20 1018.9 1005.5
15 16.05 СЗ 6-8
{10}
10 км 4/0
[Ci ing]
+17.9 +2.1 35 +17 +18 1019.4 1005.9 +18.7 4
18 16.05 СЗ 3-5
{9}
10 км 6/0
[Cs]
+12.8 +2.9 51 +12 +12 1021.3 1007.6
21 16.05 СЗ 3-5
{6}
10 км ясно +10.0 +1.3 55 +8 +8 1022.0 1008.1
00 17.05 СЗ 3-4
{6}
10 км ясно +5.9 +0.5 68 +3 +3 1023.6 1009.5
03 17.05 СЗ 2-3
{4}
10 км ясно +7.5 +1.7 67 +6 +7 1024.0 1010.0 +5.8
06 17.05 СЗ 3-6
{6}
10 км 3/3 600 м
[Cu hum]
+13.1 +1.5 45 +12 +18 1024.9 1011.2
09 17.05 З 3-5
{9}
10 км 4/4 1000 м
[Cu hum]
+14.8 -0.5 35 +14 +22 1023.9 1010.3
12 17.05 СЗ 3-7
{8}
10 км ясно +16.5 -1.9 28 +16 +25 1022.5 1008.9
15 17.05 З 3-5
{7}
10 км ясно +16.7 -1.2 29 +17 +18 1021.3 1007.7 +16.7
18 17.05 ЮЗ 2-3
{5}
10 км ясно +11.9 +0.2 45 +11 +11 1020.8 1007.0
21 17.05 штиль 0
{4}
10 км ясно +6.1 +2.7 79 +5 +5 1020.3 1006.2
00 18.05 ЮЗ 2-4
{4}
10 км ясно +8.5 +0.9 59 +7 +7 1019.3 1005.4
03 18.05 З 2-3
{5}
10 км ясно +9.7 +3.2 64 +8 +10 1018.8 1004.9 +6.0
06 18.05 СЗ 4-7
{7}
10 км ясно +15.5 +4.6 48 +15 +21 1017.7 1004.1
09 18.05 СЗ 5-8
{10}
10 км ясно +18.1 +1.3 32 +18 +26 1016.8 1003.4
12 18.05 СЗ 5-10
{12}
10 км 4/0
[Ci fib]
+19.5 0.0 27 +19 +24 1015.7 1002.3
15 18.05 СЗ 5-9
{11}
10 км 4/0
[Ci fib]
+18.5 -3.8 22 +18 +19 1015.5 1002.2 +19.5
18 18.05 СЗ 2-4
{10}
10 км ясно +12.5 -2.2 36 +12 +12 1015.2 1001.6
21 18.05 ЮЗ 3-4
{4}
10 км ясно +10.1 +0.2 50 +8 +8 1015.5 1001.7
00 19.05 З 1-2
{9}
10 км ясно +6.6 +1.7 71 +6 +6 1014.7 1000.8
03 19.05 СЗ 2-5
{5}
10 км ясно +7.2 +4.1 81 +5 +7 1016.2 1002.3 +6.5
06 19.05 СЗ 4-6
{7}
10 км 8/8 600 м
[]
+11.2 0.0 46 +9 +11 1016.4 1002.6
09 19.05 СЗ 6-10
{10}
10 км 6/6 600 м
[Cu hum]
+14.8 -0.2 36 +13 +16 1016.1 1002.5
12 19.05 СЗ 6-10
{11}
10 км 6/6 1000 м
[Cu hum]
+16.1 -0.5 32 +15 +17 1015.6 1002.1
15 19.05 С 5-9
{11}
10 км 3/3 1000 м
[Cu hum]
+15.3 -1.2 32 +14 +15 1016.4 1002.8 +16.1
18 19.05 С 2-4
{9}
10 км ясно +10.7 -1.9 41 +10 +10 1018.3 1004.5
21 19.05 З 1-1
{5}
10 км ясно +3.7 -0.3 75 +2 +2 1020.3 1006.1
00 20.05 ЮЗ 1-1
{1}
10 км ясно +1.2 -0.2 90 -1 -1 1021.2 1006.9
03 20.05 штиль 0
{2}
10 км ясно +4.7 +2.7 87 +4 +6 1022.0 1007.9 +1.1
06 20.05 СЗ 4-6
{7}
10 км 3/0
[Ci fib]
+12.2 -0.2 42 +11 +17 1022.2 1008.4
09 20.05 СЗ 4-7
{10}
10 км 4/4 1000 м
[Cu hum]
+15.3 -0.7 33 +15 +21 1021.1 1007.5
12 20.05 З 4-7
{8}
10 км 6/6 1000 м
[Cu hum]
+17.8 -0.2 30 +18 +20 1020.2 1006.7
15 20.05 С 5-6
{8}
10 км ясно +17.6 -0.7 29 +17 +18 1019.3 1005.8 +17.8
18 20.05 З 1-2
{7}
10 км ясно +10.7 +1.9 54 +11 +11 1019.1 1005.3
21 20.05 штиль 0
{3}
10 км ясно +5.9 +1.7 74 +5 +5 1019.9 1005.8
00 21.05 ЮЗ 1-2
{4}
10 км ясно +2.2 +0.6 89 0 0 1020.7 1006.4
03 21.05 штиль 0
{2}
10 км ясно +7.6 +4.1 78 +7 +9 1021.1 1007.1 +2.1
06 21.05 С 1-2
{3}
10 км 4/0
[Ci]
+16.0 +1.5 37 +17 +27 1021.8 1008.2
09 21.05 З 2-4
{5}
10 км 9/0
[Ac cast Ci]
+19.2 +0.2 28 +20 +25 1021.1 1007.6
12 21.05 штиль 0
{6}
10 км 9/0
[Ac As]
+18.6 +0.4 29 +19 +24 1020.2 1006.8
15 21.05 В 2-3
{3}
10 км 9/0
[Ac As]
+18.4 +1.5 32 +19 +20 1018.6 1005.2 +19.2

 

Местоположение метеостанции Выкса (Нижегородская область, Россия): широта 55.33 долгота 42.12 высота над уровнем моря 114 м.

В архиве по умолчанию представлена погода в Выксе за последнюю неделю. Архивные данные за месяц целиком и за предыдущие месяцы, начиная с января 2011 года, Вы можете получить, выбрав интересующий диапазон дат из раскрывающегося списка и нажав кнопку "Ввод!".


*Определитесь, кто Вы:
робот инопланетянин человек

Внимание! Время в таблицах - всемирное. Для получения местного времени необходимо прибавить поправку, которая равна 3 ч.

Смотрите также архив погоды в соседних городах и на ближайших метеорологических станциях:

Погода в Муроме (Владимирская область, Россия) (31 км)
Погода в Елатьме (Рязанская область, Россия) (48 км)
Погода в Павлово (Нижегородская область, Россия) (90 км)
Погода в Вязниках (Владимирская область, Россия) (97 км)
Погода в Гусь-Хрустальный (Владимирская область, Россия) (97 км)
Погода в Туме (Рязанская область, Россия) (102 км)
Погода в Арзамасе (Нижегородская область, Россия) (105 км)
Погода в Темникове (Мордовия, Россия) (105 км)
Погода в Сасово (Рязанская область, Россия) (109 км)
Погода в Коврове (Владимирская область, Россия) (124 км)

Пояснения к столбцам:

Ветер - указаны скорость ветра в м/с - средняя за 10 мин, порывы в срок и между сроками (в фигурных скобках) и направление, откуда дует ветер: С - северный, СВ - северо-восточный, В - восточный, ЮВ - юго-восточный, Ю - южный, ЮЗ - юго-западный, З - западный, СЗ - северо-западный.
Видимость - горизонтальная дальность видимости в метрах или километрах. При видимости от 1 до 10 км при отсутствии осадков обычно наблюдается дымка, при ухудшении видимости до 1 км и менее - туман. В сухую погоду видимость может ухудшаться дымом, пылью или мглою.
Явления - указаны атмосферные явления, наблюдавшиеся в срок или в последний час перед сроком; фигурными скобками обозначены явления, наблюдавшиеся между сроками (за 1-3 часа до срока); квадратными скобками обозначены град или гололедные отложения с указанием их диаметра в мм.
Облачность - указаны через наклонную черту общая и нижняя облачность в баллах и высота нижней границы облаков в метрах; квадратными скобками обозначены формы облаков: Ci - перистые, Cs - перисто-слоистые, Cc - перисто-кучевые, Ac - высококучевые, As - высокослоистые, Sc - слоисто-кучевые, Ns - слоисто-дождевые, Cu - кучевые, Cb - кучево-дождевые. Подробнее классификацию облаков см. в Атласе облаков (PDF).
T - Температура воздуха - температура, измеренная на высоте 2 м над землей.
Td - Температура точки росы - температура, при понижении до которой содержащийся в воздухе водяной пар достигнет насыщения.
f - Относительная влажность воздуха - влажноcть воздуха, измеренная на высоте 2 м над землей.
Te - Эффективная температура - температура, которую ощущает одетый по сезону человек в тени. Характеристика душности погоды. При расчете учитывается влияние влажности воздуха и скорости ветра на теплоощущения человека.
Tes - Эффективная температура на солнце - температура, которую ощущает человек, с поправкой на солнечный нагрев. Характеристика знойности погоды. Зависит от высоты солнца над горизонтом, облачности и скорости ветра. Ночью, в пасмурную погоду, а также при ветре 12 м/с и более поправка равна нулю.
P - Атмосферное давление - приведенное к уровню моря атмосферное давление.
Po - Атмосферное давление - измеренное на уровне метеостанции атмосферное давление.
Tmin - Минимальная температура - минимум температуры воздуха на высоте 2 м над землей.
Tmax - Максимальная температура - максимум температуры воздуха на высоте 2 м над землей.
R - Количество осадков - Количество выпавших осадков за период времени, мм. При наведении курсора мыши на число - период времени, за который выпало указанное количество осадков.
R24 - Количество осадков - Количество выпавших осадков за 24 часа, мм.
S - Снежный покров - Высота снежного покрова, см. При наведении курсора мыши на число - состояние снежного покрова и степень покрытия местности в баллах.